Tracking 25711 objects as of 22-May-2022
HD Live streaming from Space Station
objects crossing your sky now

O3B FM16

Track O3B FM16 now!
10-day predictions
O3B FM16 is classified as:


NORAD ID: 43232
Int'l Code: 2018-024B
Perigee: 8,069.0 km
Apogee: 8,077.0 km
Inclination: 0.0 °
Period: 287.9 minutes
Semi major axis: 14444 km
RCS: Unknown
Launch date: March 9, 2018
Source: O3b Networks (O3B)
Launch site: FRENCH GUIANA (FRGUI)
aabbcc
Your satellite tracking list
Your tracking list is empty




NASA's NSSDC Master Catalog

Two Line Element Set (TLE):
1 43232U 18024B   22140.96042084 -.00000023  00000-0  00000-0 0  9997
2 43232   0.0419   3.8811 0002762  60.0514 296.0957  5.00115807 76495
Source of the keplerian elements: AFSPC